Time,TemperatureF,DewpointF,PressureIn,WindDirection,WindDirectionDegrees,WindSpeedMPH,WindSpeedGustMPH,Humidity,HourlyPrecipIn,Conditions,Clouds,dailyrainin,SoftwareType,DateUTC
2013-07-26 00:02:00,65.0,53.0,30.01,SE,142,0.0,-999.0,65,-99.99,,,-99.99,,2013-07-26 04:02:00,
2013-07-26 00:12:00,65.0,53.0,30.01,South,174,0.0,-999.0,65,-99.99,,,-99.99,,2013-07-26 04:12:00,
2013-07-26 00:32:00,65.0,53.0,30.01,South,186,1.0,-999.0,65,-99.99,,,-99.99,,2013-07-26 04:32:00,
2013-07-26 01:02:00,65.0,53.0,30.00,SSW,209,3.0,-999.0,64,-99.99,,,-99.99,,2013-07-26 05:02:00,
2013-07-26 01:12:00,65.0,54.0,30.00,SE,146,1.0,-999.0,67,-99.99,,,-99.99,,2013-07-26 05:12:00,
2013-07-26 01:32:00,64.0,53.0,30.00,SSE,161,1.0,-999.0,67,-99.99,,,-99.99,,2013-07-26 05:32:00,
2013-07-26 01:43:00,64.0,54.0,30.00,SSE,158,1.0,-999.0,69,-99.99,,,-99.99,,2013-07-26 05:43:00,
2013-07-26 01:52:00,64.0,54.0,30.00,SSE,158,1.0,-999.0,69,-99.99,,,-99.99,,2013-07-26 05:52:00,
2013-07-26 02:02:00,64.0,54.0,30.00,SSE,151,3.0,-999.0,69,-99.99,,,-99.99,,2013-07-26 06:02:00,
2013-07-26 02:12:00,64.0,54.0,29.99,SSE,158,5.0,-999.0,69,-99.99,,,-99.99,,2013-07-26 06:12:00,
2013-07-26 02:33:00,64.0,54.0,29.99,South,180,4.0,-999.0,69,-99.99,,,-99.99,,2013-07-26 06:33:00,
2013-07-26 02:43:00,64.0,54.0,29.99,SSW,196,3.0,-999.0,70,-99.99,,,-99.99,,2013-07-26 06:43:00,
2013-07-26 02:52:00,63.0,54.0,29.98,South,182,4.0,-999.0,73,-99.99,,,-99.99,,2013-07-26 06:52:00,
2013-07-26 03:02:00,63.0,54.0,29.98,South,182,4.0,-999.0,73,-99.99,,,-99.99,,2013-07-26 07:02:00,
2013-07-26 03:12:00,62.0,54.0,29.98,South,171,4.0,-999.0,75,-99.99,,,-99.99,,2013-07-26 07:12:00,
2013-07-26 03:22:00,62.0,54.0,29.98,SSE,159,5.0,-999.0,76,-99.99,,,-99.99,,2013-07-26 07:22:00,
2013-07-26 03:32:00,62.0,54.0,29.98,SSE,159,5.0,-999.0,76,-99.99,,,-99.99,,2013-07-26 07:32:00,
2013-07-26 03:43:00,61.0,54.0,29.98,SSE,163,5.0,-999.0,77,-99.99,,,-99.99,,2013-07-26 07:43:00,
2013-07-26 03:53:00,61.0,54.0,29.98,SSE,166,4.0,-999.0,79,-99.99,,,-99.99,,2013-07-26 07:53:00,
2013-07-26 04:02:00,61.0,54.0,29.98,SSE,166,4.0,-999.0,79,-99.99,,,-99.99,,2013-07-26 08:02:00,
2013-07-26 04:12:00,60.0,54.0,29.98,SW,221,3.0,-999.0,81,-99.99,,,-99.99,,2013-07-26 08:12:00,
2013-07-26 04:22:00,60.0,54.0,29.98,SSW,212,2.0,-999.0,82,-99.99,,,-99.99,,2013-07-26 08:22:00,
2013-07-26 04:32:00,60.0,54.0,29.98,SSW,212,2.0,-999.0,82,-99.99,,,-99.99,,2013-07-26 08:32:00,
2013-07-26 04:44:00,60.0,54.0,29.98,SSW,212,2.0,-999.0,82,-99.99,,,-99.99,,2013-07-26 08:44:00,
2013-07-26 04:52:00,60.0,54.0,29.98,South,171,4.0,-999.0,82,-99.99,,,-99.99,,2013-07-26 08:52:00,
2013-07-26 05:02:00,60.0,54.0,29.98,South,171,4.0,-999.0,82,-99.99,,,-99.99,,2013-07-26 09:02:00,
2013-07-26 05:12:00,61.0,55.0,29.98,SSE,150,5.0,-999.0,81,-99.99,,,-99.99,,2013-07-26 09:12:00,
2013-07-26 05:32:00,61.0,55.0,29.98,SSE,166,6.0,-999.0,80,-99.99,,,-99.99,,2013-07-26 09:32:00,
2013-07-26 05:43:00,61.0,55.0,29.98,SSW,204,5.0,-999.0,80,-99.99,,,-99.99,,2013-07-26 09:43:00,
2013-07-26 05:52:00,61.0,55.0,29.98,SSW,207,5.0,-999.0,81,-99.99,,,-99.99,,2013-07-26 09:52:00,
2013-07-26 06:02:00,61.0,55.0,29.98,SSW,207,5.0,-999.0,81,-99.99,,,-99.99,,2013-07-26 10:02:00,
2013-07-26 06:12:00,61.0,55.0,29.98,SW,217,5.0,-999.0,81,-99.99,,,-99.99,,2013-07-26 10:12:00,
2013-07-26 06:22:00,61.0,55.0,29.98,SW,217,5.0,-999.0,81,-99.99,,,-99.99,,2013-07-26 10:22:00,
2013-07-26 06:33:00,61.0,55.0,29.98,SSW,195,4.0,-999.0,81,-99.99,,,-99.99,,2013-07-26 10:33:00,
2013-07-26 06:42:00,61.0,55.0,29.98,SSE,153,4.0,-999.0,81,-99.99,,,-99.99,,2013-07-26 10:42:00,
2013-07-26 06:52:00,61.0,55.0,29.98,SSE,153,4.0,-999.0,81,-99.99,,,-99.99,,2013-07-26 10:52:00,
2013-07-26 07:02:00,61.0,55.0,29.98,SSW,206,5.0,-999.0,80,-99.99,,,-99.99,,2013-07-26 11:02:00,
2013-07-26 07:12:00,62.0,55.0,29.98,SW,215,4.0,-999.0,79,-99.99,,,-99.99,,2013-07-26 11:12:00,
2013-07-26 07:32:00,62.0,55.0,29.98,South,174,3.0,-999.0,78,-99.99,,,-99.99,,2013-07-26 11:32:00,
2013-07-26 07:43:00,62.0,55.0,29.98,South,188,5.0,-999.0,77,-99.99,,,-99.99,,2013-07-26 11:43:00,
2013-07-26 07:52:00,62.0,55.0,29.98,South,188,5.0,-999.0,77,-99.99,,,-99.99,,2013-07-26 11:52:00,
2013-07-26 08:02:00,63.0,56.0,29.98,South,169,5.0,-999.0,77,-99.99,,,-99.99,,2013-07-26 12:02:00,
2013-07-26 08:12:00,63.0,56.0,29.98,SW,223,4.0,-999.0,77,-99.99,,,-99.99,,2013-07-26 12:12:00,
2013-07-26 08:33:00,63.0,56.0,29.98,SW,229,3.0,-999.0,77,-99.99,,,-99.99,,2013-07-26 12:33:00,
2013-07-26 09:12:00,64.0,57.0,29.98,SSW,199,4.0,-999.0,77,-99.99,,,-99.99,,2013-07-26 13:12:00,
2013-07-26 09:23:00,64.0,57.0,29.98,SSW,199,4.0,-999.0,77,-99.99,,,-99.99,,2013-07-26 13:23:00,
2013-07-26 09:32:00,65.0,57.0,29.98,SSW,211,5.0,-999.0,76,-99.99,,,-99.99,,2013-07-26 13:32:00,
2013-07-26 09:43:00,66.0,57.0,29.97,SSW,192,6.0,-999.0,74,-99.99,,,-99.99,,2013-07-26 13:43:00,
2013-07-26 10:02:00,66.0,57.0,29.97,South,169,6.0,-999.0,74,-99.99,,,-99.99,,2013-07-26 14:02:00,
2013-07-26 10:32:00,67.0,58.0,29.97,SSW,205,5.0,-999.0,74,-99.99,,,-99.99,,2013-07-26 14:32:00,
2013-07-26 10:43:00,67.0,58.0,29.97,SSW,196,6.0,-999.0,73,-99.99,,,-99.99,,2013-07-26 14:43:00,
2013-07-26 10:53:00,67.0,58.0,29.97,SSW,196,6.0,-999.0,73,-99.99,,,-99.99,,2013-07-26 14:53:00,
2013-07-26 11:22:00,69.0,60.0,29.96,SE,139,5.0,-999.0,73,-99.99,,,-99.99,,2013-07-26 15:22:00,
2013-07-26 11:33:00,70.0,60.0,29.96,SSW,207,4.0,-999.0,70,-99.99,,,-99.99,,2013-07-26 15:33:00,
2013-07-26 11:53:00,70.0,59.0,29.97,South,182,6.0,-999.0,68,-99.99,,,-99.99,,2013-07-26 15:53:00,
2013-07-26 12:14:00,70.0,59.0,29.96,SSE,157,6.0,-999.0,69,-99.99,,,-99.99,,2013-07-26 16:14:00,
2013-07-26 12:22:00,70.0,60.0,29.96,SSE,149,6.0,-999.0,70,-99.99,,,-99.99,,2013-07-26 16:22:00,
2013-07-26 12:43:00,71.0,61.0,29.96,SSE,159,5.0,-999.0,70,-99.99,,,-99.99,,2013-07-26 16:43:00,
2013-07-26 12:54:00,71.0,61.0,29.96,SSE,159,5.0,-999.0,70,-99.99,,,-99.99,,2013-07-26 16:54:00,
2013-07-26 13:02:00,71.0,61.0,29.96,SW,215,4.0,-999.0,71,-99.99,,,-99.99,,2013-07-26 17:02:00,
2013-07-26 13:12:00,71.0,61.0,29.96,SW,215,4.0,-999.0,71,-99.99,,,-99.99,,2013-07-26 17:12:00,
2013-07-26 13:22:00,72.0,62.0,29.96,SSW,207,5.0,-999.0,70,-99.99,,,-99.99,,2013-07-26 17:22:00,
2013-07-26 13:33:00,72.0,61.0,29.95,South,184,6.0,-999.0,69,-99.99,,,-99.99,,2013-07-26 17:33:00,
2013-07-26 13:43:00,72.0,60.0,29.95,SW,217,6.0,-999.0,66,-99.99,,,-99.99,,2013-07-26 17:43:00,
2013-07-26 13:53:00,72.0,60.0,29.95,SW,217,6.0,-999.0,66,-99.99,,,-99.99,,2013-07-26 17:53:00,
2013-07-26 14:12:00,72.0,60.0,29.94,SSW,196,8.0,-999.0,66,-99.99,,,-99.99,,2013-07-26 18:12:00,
2013-07-26 14:23:00,72.0,61.0,29.94,South,191,7.0,-999.0,68,-99.99,,,-99.99,,2013-07-26 18:23:00,
2013-07-26 14:33:00,72.0,61.0,29.93,South,174,6.0,-999.0,69,-99.99,,,-99.99,,2013-07-26 18:33:00,
2013-07-26 14:52:00,73.0,61.0,29.93,SSW,213,8.0,-999.0,65,-99.99,,,-99.99,,2013-07-26 18:52:00,
2013-07-26 15:22:00,74.0,61.0,29.91,SSE,150,8.0,-999.0,63,-99.99,,,-99.99,,2013-07-26 19:22:00,
2013-07-26 15:32:00,75.0,61.0,29.91,South,189,6.0,-999.0,62,-99.99,,,-99.99,,2013-07-26 19:32:00,
2013-07-26 15:43:00,76.0,62.0,29.90,South,190,5.0,-999.0,61,-99.99,,,-99.99,,2013-07-26 19:43:00,
2013-07-26 15:52:00,76.0,62.0,29.90,South,190,5.0,-999.0,61,-99.99,,,-99.99,,2013-07-26 19:52:00,
2013-07-26 16:22:00,77.0,62.0,29.88,SSW,205,5.0,-999.0,60,-99.99,,,-99.99,,2013-07-26 20:22:00,
2013-07-26 16:32:00,77.0,61.0,29.87,SSW,209,6.0,-999.0,58,-99.99,,,-99.99,,2013-07-26 20:32:00,
2013-07-26 16:43:00,77.0,62.0,29.88,South,184,7.0,-999.0,59,-99.99,,,-99.99,,2013-07-26 20:43:00,
2013-07-26 16:53:00,77.0,62.0,29.88,South,184,7.0,-999.0,59,-99.99,,,-99.99,,2013-07-26 20:53:00,
2013-07-26 17:22:00,76.0,61.0,29.87,SW,221,4.0,-999.0,60,-99.99,,,-99.99,,2013-07-26 21:22:00,
2013-07-26 17:32:00,76.0,62.0,29.86,ESE,113,5.0,-999.0,61,-99.99,,,-99.99,,2013-07-26 21:32:00,
2013-07-26 17:43:00,76.0,62.0,29.86,ESE,113,5.0,-999.0,61,-99.99,,,-99.99,,2013-07-26 21:43:00,
2013-07-26 17:53:00,76.0,61.0,29.86,South,173,5.0,-999.0,60,-99.99,,,-99.99,,2013-07-26 21:53:00,
2013-07-26 18:02:00,76.0,62.0,29.86,South,188,6.0,-999.0,61,-99.99,,,-99.99,,2013-07-26 22:02:00,
2013-07-26 18:12:00,76.0,62.0,29.86,South,188,6.0,-999.0,61,-99.99,,,-99.99,,2013-07-26 22:12:00,
2013-07-26 18:22:00,76.0,62.0,29.85,SW,215,3.0,-999.0,62,-99.99,,,-99.99,,2013-07-26 22:22:00,
2013-07-26 18:33:00,74.0,62.0,29.86,West,280,3.0,-999.0,66,-99.99,,,-99.99,,2013-07-26 22:33:00,
2013-07-26 18:43:00,72.0,62.0,29.86,WSW,244,2.0,-999.0,71,-99.99,,,-99.99,,2013-07-26 22:43:00,
2013-07-26 18:53:00,72.0,62.0,29.86,WSW,244,2.0,-999.0,71,-99.99,,,-99.99,,2013-07-26 22:53:00,
2013-07-26 19:22:00,68.0,65.0,29.86,WNW,301,1.0,-999.0,89,-99.99,,,-99.99,,2013-07-26 23:22:00,
2013-07-26 19:32:00,67.0,64.0,29.86,WNW,301,0.0,-999.0,91,-99.99,,,-99.99,,2013-07-26 23:32:00,
2013-07-26 19:43:00,67.0,65.0,29.85,West,265,0.0,-999.0,92,-99.99,,,-99.99,,2013-07-26 23:43:00,
2013-07-26 19:53:00,67.0,65.0,29.85,West,265,0.0,-999.0,92,-99.99,,,-99.99,,2013-07-26 23:53:00,
2013-07-26 20:02:00,67.0,65.0,29.86,WSW,246,1.0,-999.0,92,-99.99,,,-99.99,,2013-07-27 00:02:00,
2013-07-26 20:12:00,67.0,65.0,29.86,WSW,246,1.0,-999.0,92,-99.99,,,-99.99,,2013-07-27 00:12:00,
2013-07-26 20:22:00,67.0,65.0,29.86,WSW,246,1.0,-999.0,92,-99.99,,,-99.99,,2013-07-27 00:22:00,
2013-07-26 20:32:00,66.0,64.0,29.86,WSW,246,0.0,-999.0,93,-99.99,,,-99.99,,2013-07-27 00:32:00,
2013-07-26 20:43:00,66.0,64.0,29.86,WSW,246,0.0,-999.0,93,-99.99,,,-99.99,,2013-07-27 00:43:00,
2013-07-26 20:53:00,66.0,64.0,29.86,WSW,246,0.0,-999.0,93,-99.99,,,-99.99,,2013-07-27 00:53:00,
2013-07-26 21:02:00,66.0,64.0,29.86,WSW,246,0.0,-999.0,94,-99.99,,,-99.99,,2013-07-27 01:02:00,
2013-07-26 21:12:00,66.0,64.0,29.86,SSW,205,1.0,-999.0,94,-99.99,,,-99.99,,2013-07-27 01:12:00,
2013-07-26 21:22:00,66.0,64.0,29.86,SSW,205,1.0,-999.0,94,-99.99,,,-99.99,,2013-07-27 01:22:00,
2013-07-26 21:32:00,66.0,64.0,29.85,South,190,3.0,-999.0,92,-99.99,,,-99.99,,2013-07-27 01:32:00,
2013-07-26 21:43:00,66.0,64.0,29.85,South,190,3.0,-999.0,92,-99.99,,,-99.99,,2013-07-27 01:43:00,
2013-07-26 21:53:00,65.0,62.0,29.85,SW,221,3.0,-999.0,90,-99.99,,,-99.99,,2013-07-27 01:53:00,
2013-07-26 22:02:00,65.0,62.0,29.85,SW,221,3.0,-999.0,90,-99.99,,,-99.99,,2013-07-27 02:02:00,
2013-07-26 22:12:00,64.0,61.0,29.85,SSW,202,1.0,-999.0,90,-99.99,,,-99.99,,2013-07-27 02:12:00,
2013-07-26 22:22:00,64.0,61.0,29.85,SSW,202,1.0,-999.0,90,-99.99,,,-99.99,,2013-07-27 02:22:00,
2013-07-26 22:32:00,64.0,61.0,29.85,SSW,200,0.0,-999.0,91,-99.99,,,-99.99,,2013-07-27 02:32:00,
2013-07-26 22:43:00,63.0,61.0,29.85,SSW,200,0.0,-999.0,92,-99.99,,,-99.99,,2013-07-27 02:43:00,
2013-07-26 22:53:00,63.0,61.0,29.85,SSW,200,0.0,-999.0,92,-99.99,,,-99.99,,2013-07-27 02:53:00,
2013-07-26 23:03:00,63.0,61.0,29.84,SSW,200,0.0,-999.0,93,-99.99,,,-99.99,,2013-07-27 03:03:00,
2013-07-26 23:22:00,63.0,61.0,29.84,SSW,200,0.0,-999.0,94,-99.99,,,-99.99,,2013-07-27 03:22:00,
2013-07-26 23:44:00,63.0,62.0,29.84,SSW,200,0.0,-999.0,95,-99.99,,,-99.99,,2013-07-27 03:44:00,
2013-07-26 23:52:00,63.0,62.0,29.84,SSW,200,0.0,-999.0,95,-99.99,,,-99.99,,2013-07-27 03:52:00,